Location: Bonaustraße
(48.4603°N, 11.9280°E)
Time: 22:14:35
(UTC+02:00)

AO-92 - Pass Details

Date: 07 August 2021
Orbit: 484 x 494 km, 97.4° (Epoch: 17 September)

Event Time Altitude Azimuth Distance (km) Brightness Sun altitude
Exits shadow 23:40:54 32° 248° (WSW) 852 ? -21.9°
Maximum altitude 23:41:18 33° 263° (W) 833 ? -21.9°
Drops below altitude 10° 23:44:37 10° 329° (NNW) 1,679 ? -22.1°
Sets 23:46:50 0° 339° (NNW) 2,567 ? -22.3°
